{"data":{"norad_id":67129,"epoch":"2026-09-19T23:05:15.751104Z","epoch_age_seconds":124665,"freshness":"FRESH","line1":"1 67129U 25299AD  26262.96198786  .00015205  00000+0  56067-3 0  9993","line2":"2 67129  43.0018 152.1863 0001168 275.9198  84.1520 15.27594495 42823","mean_motion":15.27594495,"eccentricity":0.0001168,"inclination_deg":43.0018,"raan_deg":152.1863,"arg_perigee_deg":275.9198,"mean_anomaly_deg":84.152,"bstar":0.00056067,"rev_number":4282,"period_min":94.265854237711,"perigee_km":482.20431167175,"apogee_km":483.80707460487,"semimajor_km":6861.1426931383,"source":"CELESTRAK","updated_at":"2026-09-21T09:00:36.109409Z"}}